Location: Grust
(42.8833°N, 0.0333°W)
Time: 14:31:29
(UTC+00:00)

Cosmos 1745 Rocket - Pass Details

Date: 25 October 2020
Orbit: 953 x 997 km, 83.0° (Epoch: 24 November)

Event Time Altitude Azimuth Distance (km) Brightness Sun altitude
Rises 18:11:55 0° 358° (N) 3,687 7.0 -13.5°
Reaches altitude 10° 18:14:37 10° 6° (N) 2,742 6.3 -14.0°
Maximum altitude 18:20:30 40° 75° (ENE) 1,410 4.4 -15.1°
Drops below altitude 10° 18:26:24 10° 144° (SE) 2,750 6.0 -16.1°
Sets 18:29:05 0° 152° (SSE) 3,698 6.8 -16.6°
